Date String (YYYY-MM-DD hh:mm:ss) UTC,Instrument flags,Ambient pressure (hPa),Sample flow (lpm),Bypass flow (lpm),Sample temperature (°C),Ambient temperature (°C),ASC tube jacket temperature (°C),LED temperature (°C),Box temperature (°C),Sample RH (%),Span deviation,Mass concentration (μg/m³),Mass concentration (μg/m³),Mass concentration (μg/m³)
DateTimeUTC,F1_M11,P_M11,Q1_M11,Q2_M11,T1_M11,T2_M11,T3_M11,T4_M11,T5_M11,U1_M11,ZSPAN_M11,X0_M11,X2_M11,X1_M11
2022-10-09 06:00:00,,0833.4,5.01,0.00,29.1,27.4,00.0,37.9,30.8,16.1,-000.5,0011.82,0007.82,0007.36
2022-10-09 06:01:00,,0833.4,4.99,0.00,29.1,27.4,00.0,37.9,30.8,16.1,-000.3,0011.91,0007.83,0007.35
2022-10-09 06:02:00,,0833.4,5.01,0.00,29.1,27.4,00.0,37.9,30.8,16.1,-000.2,0011.97,0007.84,0007.34
2022-10-09 06:03:00,,0833.4,5.01,0.00,29.0,27.4,00.0,37.9,30.8,16.1,-000.0,0011.73,0007.82,0007.33
2022-10-09 06:04:00,,0833.4,4.99,0.00,29.0,27.3,00.0,37.9,30.8,16.2,-000.3,0011.79,0007.81,0007.31
2022-10-09 06:05:00,,0833.4,5.01,0.00,29.0,27.4,00.0,37.9,30.8,16.1,0000.0,0011.79,0007.84,0007.31
2022-10-09 06:06:00,,0833.4,4.99,0.00,29.0,27.3,00.0,37.9,30.8,16.2,0000.1,0011.67,0007.80,0007.29
2022-10-09 06:07:00,,0833.4,5.01,0.00,29.0,27.3,00.0,37.9,30.8,16.2,0000.2,0011.11,0007.76,0007.28
2022-10-09 06:08:00,,0833.4,4.99,0.00,29.0,27.3,00.0,37.9,30.8,16.2,0000.1,0011.00,0007.72,0007.28
2022-10-09 06:09:00,,0833.4,5.01,0.00,29.0,27.3,00.0,37.8,30.8,16.2,0000.2,0011.55,0007.79,0007.31
2022-10-09 06:10:00,,0833.4,4.99,0.00,29.0,27.3,00.0,37.8,30.7,16.2,0000.7,0011.64,0007.81,0007.31
2022-10-09 06:11:00,,0833.4,5.01,0.00,29.0,27.3,00.0,37.8,30.7,16.2,0000.9,0011.72,0007.81,0007.30
2022-10-09 06:12:00,,0833.4,5.00,0.00,29.0,27.3,00.0,37.8,30.7,16.2,0001.1,0011.66,0007.83,0007.29
2022-10-09 06:13:00,,0833.3,4.99,0.00,29.0,27.3,00.0,37.8,30.8,16.2,0001.6,0011.44,0007.83,0007.29
2022-10-09 06:14:00,,0833.3,5.01,0.00,29.0,27.3,00.0,37.8,30.7,16.2,0001.3,0011.50,0007.83,0007.28
2022-10-09 06:15:00,,0833.3,4.99,0.00,29.0,27.3,00.0,37.8,30.7,16.2,0001.9,0011.50,0007.83,0007.27
2022-10-09 06:16:00,,0833.2,5.02,0.00,29.0,27.3,00.0,37.8,30.7,16.2,0002.1,0011.43,0007.82,0007.27
2022-10-09 06:17:00,,0833.2,4.99,0.00,29.0,27.3,00.0,37.8,30.7,16.2,0001.6,0011.53,0007.83,0007.26
2022-10-09 06:18:00,,0833.1,5.01,0.00,28.9,27.3,00.0,37.8,30.7,16.2,0001.5,0011.62,0007.83,0007.23
2022-10-09 06:19:00,,0833.2,4.99,0.00,28.9,27.3,00.0,37.8,30.7,16.2,0001.7,0011.81,0007.90,0007.22
2022-10-09 06:20:00,,0833.1,5.00,0.00,28.9,27.3,00.0,37.8,30.7,16.2,0001.8,0011.46,0007.88,0007.20
2022-10-09 06:21:00,,0833.2,5.01,0.00,28.9,27.3,00.0,37.8,30.7,16.2,0001.6,0011.47,0007.88,0007.20
2022-10-09 06:22:00,,0833.1,5.00,0.00,28.9,27.2,00.0,37.8,30.6,16.2,0001.3,0011.42,0007.87,0007.20
2022-10-09 06:23:00,,0833.1,5.00,0.00,28.9,27.2,00.0,37.8,30.6,16.1,0001.1,0011.50,0007.84,0007.19
2022-10-09 06:24:00,,0833.1,5.01,0.00,28.9,27.2,00.0,37.7,30.7,16.1,0001.0,0011.50,0007.82,0007.16
2022-10-09 06:25:00,,0833.1,4.99,0.00,28.9,27.2,00.0,37.7,30.7,16.1,0001.2,0011.40,0007.80,0007.14
2022-10-09 06:26:00,,0833.1,5.02,0.00,28.9,27.2,00.0,37.7,30.6,16.1,0001.0,0011.39,0007.80,0007.13
2022-10-09 06:27:00,,0833.1,4.99,0.00,28.9,27.2,00.0,37.7,30.7,16.1,0000.6,0011.52,0007.76,0007.10
2022-10-09 06:28:00,,0833.1,5.00,0.00,28.9,27.2,00.0,37.7,30.6,16.1,0000.7,0011.87,0007.69,0007.07
2022-10-09 06:29:00,,0833.1,5.01,0.00,28.9,27.2,00.0,37.7,30.6,16.1,0000.5,0011.78,0007.65,0007.05
2022-10-09 06:30:00,,0833.1,4.99,0.00,28.8,27.2,00.0,37.7,30.6,16.1,0000.3,0011.61,0007.57,0007.01
2022-10-09 06:31:00,,0833.1,4.99,0.00,28.8,27.2,00.0,37.7,30.6,16.1,0000.4,0011.45,0007.50,0006.98
2022-10-09 06:32:00,,0833.1,5.01,0.00,28.8,27.2,00.0,37.7,30.6,16.1,0000.1,0011.32,0007.44,0006.95
2022-10-09 06:33:00,,0833.1,4.99,0.00,28.8,27.1,00.0,37.7,30.6,16.1,-000.2,0011.27,0007.40,0006.91
2022-10-09 06:34:00,,0833.1,5.01,0.00,28.8,27.1,00.0,37.7,30.6,16.1,-000.5,0011.23,0007.37,0006.89
2022-10-09 06:35:00,,0833.1,4.99,0.00,28.8,27.1,00.0,37.7,30.6,16.0,-000.4,0011.97,0007.33,0006.86
2022-10-09 06:36:00,,0833.1,5.00,0.00,28.8,27.1,00.0,37.7,30.6,16.0,-000.1,0012.62,0007.34,0006.85
2022-10-09 06:37:00,,0833.1,5.01,0.00,28.8,27.1,00.0,37.7,30.6,16.1,-000.1,0012.70,0007.36,0006.84
2022-10-09 06:38:00,,0833.1,4.99,0.00,28.8,27.1,00.0,37.7,30.6,16.1,-000.0,0012.54,0007.36,0006.84
2022-10-09 06:39:00,,0833.1,5.01,0.00,28.8,27.1,00.0,37.6,30.6,16.1,0000.0,0012.71,0007.39,0006.84
2022-10-09 06:40:00,,0833.1,4.99,0.00,28.8,27.1,00.0,37.6,30.6,16.1,0000.6,0012.74,0007.42,0006.84
2022-10-09 06:41:00,,0833.1,5.01,0.00,28.8,27.1,00.0,37.6,30.5,16.1,0000.9,0012.67,0007.41,0006.84
2022-10-09 06:42:00,,0833.1,5.00,0.00,28.8,27.1,00.0,37.6,30.5,16.0,0000.6,0012.79,0007.42,0006.83
2022-10-09 06:43:00,,0833.1,5.00,0.00,28.7,27.1,00.0,37.6,30.6,16.0,0000.9,0012.87,0007.43,0006.83
2022-10-09 06:44:00,,0833.1,5.00,0.00,28.7,27.1,00.0,37.6,30.5,16.0,0001.2,0012.87,0007.44,0006.83
2022-10-09 06:45:00,,0833.1,4.99,0.00,28.7,27.1,00.0,37.6,30.5,16.0,0001.4,0012.65,0007.42,0006.85
2022-10-09 06:46:00,,0833.1,5.01,0.00,28.7,27.1,00.0,37.6,30.5,16.0,0001.3,0011.91,0007.43,0006.86
2022-10-09 06:47:00,,0833.1,4.99,0.00,28.7,27.1,00.0,37.6,30.5,16.0,0001.0,0011.17,0007.42,0006.87
2022-10-09 06:48:00,,0833.1,5.00,0.00,28.7,27.1,00.0,37.6,30.5,16.0,0000.9,0011.01,0007.39,0006.88
2022-10-09 06:49:00,,0833.1,4.98,0.00,28.7,27.0,00.0,37.6,30.5,16.0,0001.3,0010.94,0007.39,0006.90
2022-10-09 06:50:00,,0833.1,5.01,0.00,28.7,27.0,00.0,37.6,30.5,16.0,0001.5,0010.27,0007.37,0006.91
2022-10-09 06:51:00,,0833.1,4.99,0.00,28.7,27.0,00.0,37.6,30.5,16.0,0000.8,0010.35,0007.36,0006.91
2022-10-09 06:52:00,,0833.1,5.00,0.00,28.7,27.1,00.0,37.5,30.5,16.0,0000.7,0010.36,0007.36,0006.90
2022-10-09 06:53:00,,0833.1,5.00,0.00,28.7,27.0,00.0,37.5,30.5,16.0,0000.9,0010.86,0007.38,0006.91
2022-10-09 06:54:00,,0833.1,5.00,0.00,28.7,27.0,00.0,37.5,30.5,16.0,0000.8,0010.91,0007.41,0006.92
2022-10-09 06:55:00,,0833.1,5.00,0.00,28.7,27.0,00.0,37.5,30.5,16.0,0000.8,0010.85,0007.40,0006.92
2022-10-09 06:56:00,,0833.1,5.00,0.00,28.7,27.0,00.0,37.5,30.4,16.0,0000.7,0010.95,0007.42,0006.91
2022-10-09 06:57:00,,0833.0,5.00,0.00,28.7,27.0,00.0,37.5,30.4,15.9,0000.8,0011.18,0007.41,0006.90
2022-10-09 06:58:00,,0833.1,5.00,0.00,28.7,27.0,00.0,37.5,30.4,16.0,0001.0,0011.19,0007.40,0006.89
2022-10-09 06:59:00,,0833.0,5.00,0.00,28.6,27.0,00.0,37.5,30.4,16.0,0001.3,0011.19,0007.39,0006.87
